N7NKE Weather Reports


time (UTC)temp
C
wind
direction
speed
KPH
gust
KPH
rain 1hr
cm
rain 24hr
cm
rain mn
cm
humidity
%
barometer
mb
20260505223005 17 82 3.2 11.3 0.00 0.00 0.00 72 1016.0
20260505222505 17 43 1.6 8.0 0.00 0.00 0.00 73 1016.0
20260505222005 17 68 1.6 8.0 0.00 0.00 0.00 73 1016.1
20260505221506 17 57 3.2 9.7 0.00 0.00 0.00 73 1016.1
20260505221005 17 345 3.2 8.0 0.00 0.00 0.00 72 1016.1
20260505220504 17 86 1.6 4.8 0.00 0.00 0.00 73 1016.1
20260505220004 17 1 3.2 12.9 0.00 0.00 0.00 73 1016.2
20260505215505 17 71 3.2 4.8 0.00 0.00 0.00 74 1016.2
20260505215005 17 68 3.2 8.0 0.00 0.00 0.00 74 1016.2
20260505214504 17 22 3.2 8.0 0.00 0.00 0.00 74 1016.2
20260505214005 17 12 3.2 11.3 0.00 0.00 0.00 73 1016.2
20260505213505 17 338 1.6 3.2 0.00 0.00 0.00 74 1016.2
20260505213005 16 359 3.2 4.8 0.00 0.00 0.00 74 1016.3
20260505212505 16 313 3.2 8.0 0.00 0.00 0.00 76 1016.3
20260505212005 16 349 3.2 8.0 0.00 0.00 0.00 76 1016.3
20260505211505 16 2 3.2 8.0 0.00 0.00 0.00 75 1016.3
20260505211004 16 8 4.8 9.7 0.00 0.00 0.00 76 1016.3
20260505210505 16 70 4.8 12.9 0.00 0.00 0.00 76 1016.4
20260505210006 16 343 3.2 8.0 0.00 0.00 0.00 76 1016.4
20260505205504 16 341 4.8 8.0 0.00 0.00 0.00 75 1016.4
20260505205005 16 4 4.8 14.5 0.00 0.00 0.00 75 1016.5
20260505204505 16 12 3.2 8.0 0.00 0.00 0.00 76 1016.5
20260505204004 16 329 3.2 9.7 0.00 0.00 0.00 75 1016.6
20260505203505 16 334 4.8 9.7 0.00 0.00 0.00 75 1016.6
20260505203005 16 319 1.6 4.8 0.00 0.00 0.00 77 1016.7
20260505202505 16 324 3.2 4.8 0.00 0.00 0.00 77 1016.6
20260505202004 15 351 1.6 8.0 0.00 0.00 0.00 78 1016.7
20260505201505 15 0 3.2 8.0 0.00 0.00 0.00 78 1016.7
20260505201004 15 0 3.2 4.8 0.00 0.00 0.00 79 1016.7
20260505200005 15 0 3.2 4.8 0.00 0.00 0.00 79 1016.9
20260505195504 15 0 3.2 4.8 0.00 0.00 0.00 80 1016.8
20260505194505 15 0 1.6 3.2 0.00 0.00 0.00 81 1016.8
20260505194004 14 0 1.6 4.8 0.00 0.00 0.00 81 1016.8
20260505193505 14 0 3.2 8.0 0.00 0.00 0.00 81 1016.9
20260505192504 15 0 3.2 4.8 0.00 0.00 0.00 80 1016.9
20260505192005 15 0 1.6 4.8 0.00 0.00 0.00 80 1016.8
20260505191005 15 0 3.2 8.0 0.00 0.00 0.00 81 1016.9
20260505190005 14 0 3.2 4.8 0.00 0.00 0.00 83 1016.8
20260505185505 14 75 3.2 8.0 0.00 0.00 0.00 83 1016.9
20260505185005 13 75 1.6 3.2 0.00 0.00 0.00 84 1016.8
20260505184505 13 11 1.6 3.2 0.00 0.00 0.00 84 1016.8
20260505184005 13 0 1.6 4.8 0.00 0.00 0.00 83 1016.8
20260505183505 13 351 3.2 4.8 0.00 0.00 0.00 84 1016.8
20260505183005 13 11 3.2 4.8 0.00 0.00 0.00 84 1016.7
20260505182504 13 1 3.2 4.8 0.00 0.00 0.00 84 1016.7
20260505181504 13 0 1.6 3.2 0.00 0.00 0.00 85 1016.8
20260505181004 13 0 1.6 3.2 0.00 0.00 0.00 85 1016.7
20260505180505 13 331 1.6 3.2 0.00 0.00 0.00 85 1016.7
20260505180005 13 0 3.2 4.8 0.00 0.00 0.00 85 1016.6
20260505175505 13 0 4.8 8.0 0.00 0.00 0.00 85 1016.6
20260505175004 13 0 1.6 3.2 0.00 0.00 0.00 86 1016.6
20260505174505 13 0 1.6 3.2 0.00 0.00 0.00 86 1016.6
20260505174005 13 0 0.0 3.2 0.00 0.00 0.00 86 1016.7
20260505173504 13 0 0.0 1.6 0.00 0.00 0.00 87 1016.6
20260505173005 13 0 1.6 3.2 0.00 0.00 0.00 87 1016.6
20260505172504 13 11 1.6 3.2 0.00 0.00 0.00 88 1016.6
20260505172005 13 68 0.0 3.2 0.00 0.00 0.00 88 1016.4
20260505171505 12 0 0.0 3.2 0.00 0.00 0.00 88 1016.5
20260505171005 12 0 1.6 3.2 0.00 0.00 0.00 89 1016.5
20260505170005 12 0 0.0 3.2 0.00 0.00 0.00 89 1016.4
20260505165504 12 76 0.0 3.2 0.00 0.00 0.00 89 1016.4
20260505164504 12 47 0.0 3.2 0.00 0.00 0.00 90 1016.3
20260505164004 12 53 1.6 3.2 0.00 0.00 0.00 90 1016.3
20260505162504 12 90 1.6 3.2 0.00 0.00 0.00 90 1016.3
20260505162004 12 90 1.6 3.2 0.00 0.00 0.00 90 1016.2
20260505160504 12 90 1.6 3.2 0.00 0.00 0.00 90 1016.2
20260505153005 12 90 1.6 1.6 0.00 0.00 0.00 90 1016.1
20260505152504 12 90 1.6 3.2 0.00 0.00 0.00 90 1016.1
20260505152004 12 90 0.0 3.2 0.00 0.00 0.00 89 1016.0
20260505151505 12 90 1.6 3.2 0.00 0.00 0.00 89 1016.0
20260505151004 12 90 0.0 3.2 0.00 0.00 0.00 89 1016.0
20260505150504 12 90 1.6 1.6 0.00 0.00 0.00 89 1015.9
20260505140504 12 136 0.0 0.0 0.00 0.00 0.00 88 1015.5
20260505125004 12 209 1.6 3.2 0.00 0.00 0.00 87 1015.0
20260505124504 12 186 1.6 3.2 0.00 0.00 0.00 87 1015.0
20260505124005 12 171 0.0 3.2 0.00 0.00 0.00 87 1015.1
20260505123504 12 171 1.6 3.2 0.00 0.00 0.00 87 1015.0
20260505123005 12 213 3.2 3.2 0.00 0.00 0.00 87 1015.0
20260505122505 12 217 1.6 3.2 0.00 0.00 0.00 87 1015.0
20260505122004 12 178 3.2 4.8 0.00 0.00 0.00 87 1015.0
20260505121504 12 159 0.0 4.8 0.00 0.00 0.00 87 1015.0
20260505121004 12 167 0.0 4.8 0.00 0.00 0.00 87 1014.9
20260505120505 12 167 3.2 8.0 0.00 0.00 0.00 87 1014.9
20260505115504 11 32 0.0 3.2 0.00 0.00 0.00 87 1014.9
20260505115005 11 352 0.0 3.2 0.00 0.00 0.00 88 1014.8
20260505114505 11 329 1.6 3.2 0.00 0.00 0.00 89 1014.8
20260505114004 12 7 1.6 1.6 0.00 0.00 0.00 89 1014.8
20260505113505 11 88 1.6 3.2 0.00 0.00 0.00 89 1014.8
20260505113004 11 88 0.0 3.2 0.00 0.00 0.00 89 1014.8
20260505112505 11 163 0.0 0.0 0.00 0.00 0.00 89 1014.8
20260505112004 11 163 0.0 3.2 0.00 0.00 0.00 88 1014.7
20260505111504 11 163 0.0 0.0 0.00 0.00 0.00 89 1014.7
20260505111005 11 163 1.6 3.2 0.00 0.00 0.00 89 1014.7
20260505110504 11 163 0.0 0.0 0.00 0.00 0.00 89 1014.7
20260505102004 11 201 0.0 3.2 0.00 0.00 0.00 89 1014.3
20260505101504 11 201 0.0 1.6 0.00 0.00 0.00 89 1014.4
20260505100005 11 201 1.6 3.2 0.00 0.00 0.00 89 1014.3
20260505095004 11 201 1.6 1.6 0.00 0.00 0.00 89 1014.3
20260505094504 11 201 1.6 1.6 0.00 0.00 0.00 90 1014.3
20260505094004 10 201 0.0 3.2 0.00 0.00 0.00 89 1014.2
20260505093504 10 201 1.6 3.2 0.00 0.00 0.00 89 1014.2
20260505093004 10 201 1.6 3.2 0.00 0.00 0.00 89 1014.2
20260505092505 10 189 1.6 3.2 0.00 0.00 0.00 89 1014.2
20260505092004 10 177 1.6 1.6 0.00 0.00 0.00 89 1014.2
20260505091504 10 259 1.6 1.6 0.00 0.00 0.00 89 1014.0
20260505091005 10 259 1.6 3.2 0.00 0.00 0.00 88 1014.0
20260505090504 10 259 0.0 0.0 0.00 0.00 0.00 88 1014.0
20260505090004 10 259 1.6 1.6 0.00 0.00 0.00 88 1013.9
20260505085504 10 259 1.6 1.6 0.00 0.00 0.00 88 1013.9
20260505085004 11 259 1.6 3.2 0.00 0.00 0.00 88 1013.8
20260505084504 11 259 1.6 3.2 0.00 0.00 0.00 88 1013.9
20260505084004 11 259 0.0 3.2 0.00 0.00 0.00 88 1013.8
20260505083505 11 259 1.6 3.2 0.00 0.00 0.00 88 1013.7
20260505083005 11 259 1.6 3.2 0.00 0.00 0.00 88 1013.8
20260505082504 11 259 1.6 3.2 0.00 0.00 0.00 88 1013.8
20260505082004 11 259 0.0 0.0 0.00 0.00 0.00 88 1013.8
20260505080504 11 259 0.0 3.2 0.00 0.00 0.00 87 1013.7
20260505080004 11 240 1.6 3.2 0.00 0.00 0.00 87 1013.7
20260505075504 11 206 3.2 3.2 0.00 0.00 0.00 87 1013.7
20260505075004 11 305 1.6 3.2 0.00 0.00 0.00 86 1013.6
20260505074504 11 317 0.0 3.2 0.00 0.00 0.00 86 1013.6
20260505073504 12 213 0.0 3.2 0.00 0.00 0.00 86 1013.5
20260505073005 12 213 1.6 3.2 0.00 0.00 0.00 86 1013.3
20260505072505 12 205 1.6 4.8 0.00 0.00 0.00 86 1013.2
20260505072004 12 181 3.2 8.0 0.00 0.00 0.00 86 1013.1
20260505071004 12 217 1.6 1.6 0.00 0.00 0.00 86 1013.0
20260505070504 12 194 1.6 3.2 0.00 0.00 0.00 85 1012.9
20260505070004 12 241 1.6 3.2 0.00 0.00 0.00 85 1012.8
20260505065504 12 241 1.6 3.2 0.00 0.00 0.00 84 1012.7
20260505065004 12 233 3.2 3.2 0.00 0.00 0.00 84 1012.7
20260505064505 12 183 1.6 3.2 0.00 0.00 0.00 83 1012.7
20260505064004 13 183 1.6 3.2 0.00 0.00 0.00 82 1012.7
20260505063504 13 173 1.6 3.2 0.00 0.00 0.00 82 1012.7
20260505063004 13 209 1.6 3.2 0.00 0.00 0.00 82 1012.6
20260505062504 13 209 1.6 1.6 0.00 0.00 0.00 82 1012.5
20260505062005 13 209 1.6 3.2 0.00 0.00 0.00 82 1012.3
20260505061504 13 209 3.2 3.2 0.00 0.00 0.00 82 1012.2
20260505060504 13 194 1.6 3.2 0.00 0.00 0.00 81 1012.1
20260505055504 14 232 0.0 3.2 0.00 0.00 0.00 80 1012.1
20260505055004 14 139 1.6 3.2 0.00 0.00 0.00 80 1012.2
20260505054504 14 307 0.0 4.8 0.00 0.00 0.00 80 1012.1
20260505054004 14 9 1.6 4.8 0.00 0.00 0.00 80 1012.1
20260505053505 15 208 0.0 3.2 0.00 0.00 0.00 80 1012.1
20260505052504 15 114 1.6 4.8 0.00 0.00 0.00 79 1012.0
20260505052005 15 161 3.2 4.8 0.00 0.00 0.00 79 1012.0
20260505051504 15 180 0.0 1.6 0.00 0.00 0.00 77 1012.0
20260505051004 15 277 3.2 8.0 0.00 0.00 0.00 78 1011.9
20260505050504 15 331 1.6 3.2 0.00 0.00 0.00 78 1011.8
20260505041504 17 85 1.6 3.2 0.00 0.00 0.00 71 1011.3
20260505041004 18 55 1.6 4.8 0.00 0.00 0.00 69 1011.2
20260505040504 18 132 1.6 3.2 0.00 0.00 0.00 68 1011.0
20260505040005 18 182 1.6 4.8 0.00 0.00 0.00 67 1010.9
20260505035505 18 279 1.6 3.2 0.00 0.00 0.00 66 1010.8
20260505035005 19 325 1.6 3.2 0.00 0.00 0.00 65 1010.8
20260505034506 19 322 1.6 3.2 0.00 0.00 0.00 63 1010.8
20260505034006 19 34 1.6 3.2 0.00 0.00 0.00 63 1010.7
20260505033505 20 108 1.6 3.2 0.00 0.00 0.00 62 1010.5
20260505033007 20 333 1.6 3.2 0.00 0.00 0.00 62 1010.5
20260505032505 20 317 3.2 8.0 0.00 0.00 0.00 62 1010.4
20260505032005 20 354 1.6 3.2 0.00 0.00 0.00 62 1010.3
20260505031006 20 0 1.6 3.2 0.00 0.00 0.00 62 1010.2
20260505030505 20 263 1.6 9.7 0.00 0.00 0.00 62 1010.2
20260505030006 21 277 1.6 3.2 0.00 0.00 0.00 62 1010.1
20260505025005 21 278 1.6 4.8 0.00 0.00 0.00 62 1010.1
20260505024505 22 284 1.6 11.3 0.00 0.00 0.00 59 1010.0
20260505024006 22 272 3.2 11.3 0.00 0.00 0.00 60 1010.0
20260505023006 23 201 9.7 16.1 0.00 0.00 0.00 57 1009.8
20260505022505 23 201 8.0 12.9 0.00 0.00 0.00 57 1009.8
20260505022005 23 227 4.8 12.9 0.00 0.00 0.00 56 1009.8
20260505021507 23 218 4.8 11.3 0.00 0.00 0.00 56 1009.8
20260505021005 23 201 4.8 11.3 0.00 0.00 0.00 56 1009.8
20260505020505 23 203 8.0 11.3 0.00 0.00 0.00 58 1009.8
20260505020006 23 202 4.8 11.3 0.00 0.00 0.00 57 1009.8
20260505015505 24 166 6.4 12.9 0.00 0.00 0.00 56 1009.7
20260505015005 24 193 6.4 14.5 0.00 0.00 0.00 56 1009.7
20260505014506 24 196 8.0 14.5 0.00 0.00 0.00 56 1009.7
20260505014005 24 190 9.7 16.1 0.00 0.00 0.00 56 1009.7
20260505012005 25 167 9.7 16.1 0.00 0.00 0.00 56 1009.7
20260505011507 25 184 11.3 16.1 0.00 0.00 0.00 55 1009.8
20260505011005 25 211 11.3 16.1 0.00 0.00 0.00 56 1009.8
20260505010505 25 200 9.7 19.3 0.00 0.00 0.00 56 1009.8
20260505010005 25 213 8.0 20.9 0.00 0.00 0.00 57 1009.8
20260505005505 25 172 11.3 20.9 0.00 0.00 0.00 55 1009.9
20260505005005 25 204 6.4 12.9 0.00 0.00 0.00 55 1009.9
20260505003505 25 193 14.5 20.9 0.00 0.00 0.00 56 1009.9
20260505002505 25 182 8.0 16.1 0.00 0.00 0.00 56 1010.0
20260505002005 25 197 8.0 20.9 0.00 0.00 0.00 58 1009.9
20260505001506 25 186 12.9 25.7 0.00 0.00 0.00 57 1010.0
20260505000505 25 200 12.9 22.5 0.00 0.00 0.00 57 1010.1
20260505000005 25 145 14.5 27.4 0.00 0.00 0.00 56 1010.2
20260504235505 25 194 12.9 20.9 0.00 0.00 0.00 56 1010.2
20260504235005 25 195 11.3 22.5 0.00 0.00 0.00 56 1010.1
20260504234005 25 182 11.3 22.5 0.00 0.00 0.00 56 1010.1
20260504233505 25 187 9.7 19.3 0.00 0.00 0.00 55 1010.2
20260504233006 25 186 12.9 19.3 0.00 0.00 0.00 56 1010.2
20260504232505 25 194 9.7 20.9 0.00 0.00 0.00 55 1010.2
20260504232005 25 186 8.0 20.9 0.00 0.00 0.00 56 1010.3
20260504231505 25 179 14.5 22.5 0.00 0.00 0.00 57 1010.3
20260504231005 25 159 8.0 19.3 0.00 0.00 0.00 58 1010.4
20260504230505 24 185 14.5 25.7 0.00 0.00 0.00 58 1010.4
20260504225505 24 172 8.0 22.5 0.00 0.00 0.00 58 1010.5
20260504225005 24 156 11.3 27.4 0.00 0.00 0.00 58 1010.6
20260504224505 24 165 11.3 20.9 0.00 0.00 0.00 57 1010.7
20260504224005 24 159 11.3 19.3 0.00 0.00 0.00 56 1010.8
20260504223505 23 162 11.3 25.7 0.00 0.00 0.00 60 1010.8